User: anonymous   Login
Location: Auckland
(36.8670°S, 174.7670°E)
Time: 08:19:35
(UTC+13:00)
Language:

SPOT 3 Rocket - Orbit

View from above orbital plane
View from above orbital plane
View from above satellite
View from above satellite

Ground track
Ground track

The orbit data is extracted from the following two-line orbital elements,

1 22830U 93061H   19076.95148017 +.00000060 +00000-0 +40085-4 0  9999
2 22830 098.8274 115.2211 0010337 216.6318 143.4158 14.31430845329372
Epoch (UTC): 17 March 2019 22:50:07
Eccentricity: 0.0010337
inclination: 98.8274°
perigee height: 779 km
apogee height: 794 km
right ascension of ascending node: 115.2211°
argument of perigee: 216.6318°
revolutions per day: 14.31430845
mean anomaly at epoch: 143.4158°
orbit number at epoch: 32937

The dashed part of the orbit path shows where the satellite is in the earth's shadow,  

DLR